Location: Anankanda
(14.7841°N, 3.0348°W)
Time: 01:30:33
(UTC+00:00)

Cosmos 2278 Rocket - Pass Details

Date: 17 January 2021
Orbit: 840 x 847 km, 71.0° (Epoch: 07 March)

Event Time Altitude Azimuth Distance (km) Brightness Sun altitude
Rises 20:34:53 0° 214° (SSW) 3,384 5.9 -35.7°
Reaches altitude 10° 20:37:29 10° 222° (SW) 2,451 5.2 -36.3°
Enters shadow 20:41:18 33° 258° (WSW) 1,384 3.7 -37.2°
